Tracking 27188 objects as of 2-Apr-2023
HD Live streaming from Space Station
objects crossing your sky now

STARLINK-2602

Track STARLINK-2602 now!
10-day predictions
STARLINK-2602 is classified as:


NORAD ID: 48393
Int'l Code: 2021-038AS
Perigee: 553.3 km
Apogee: 555.5 km
Inclination: 53.1 °
Period: 95.6 minutes
Semi major axis: 6925 km
RCS: Unknown
Launch date: May 4, 2021
Source: United States (US)
Launch site: AIR FORCE EASTERN TEST RANGE (AFETR)
Your satellite tracking list
Your tracking list is empty




NASA's NSSDC Master Catalog

Two Line Element Set (TLE):
1 48393U 21038AS  23091.60501520  .00005651  00000-0  39803-3 0  9998
2 48393  53.0540 118.8794 0001558 100.2818 259.8347 15.06391392106782
Source of the keplerian elements: AFSPC